Weather History for Kecskemet, Hungary

Change the Weather History Date:

Wednesday, November 27, 2013

  Actual Average (LHBP) Record (LHBP)
Temperature  
Mean Temperature 32 °F -  
Max Temperature 39 °F 41 °F 59 °F (2012)
Min Temperature 26 °F 31 °F 17 °F (1999)
Degree Days  
Heating Degree Days 32    
Moisture  
Dew Point 23 °F    
Average Humidity 68    
Maximum Humidity 86    
Minimum Humidity 52    
Precipitation  
Precipitation 0.00 in - - ()
Sea Level Pressure  
Sea Level Pressure 30.31 in    
Wind  
Wind Speed 11 mph ()    
Max Wind Speed 20 mph    
Max Gust Speed 31 mph    
Visibility 5.1 miles    
Events      
Averages and records for this station are not official NWS values.
T = Trace of Precipitation, MM = Missing Value Source: Averaged Metar Reports

Daily Weather History Graph

Daily Weather History Graph

Search for Another Location

Airport:

Trip Planner

Search our weather history database for the weather conditions in past years. The results will help you decide how hot, cold, wet, or windy it might be!

Date:

Astronomy

Nov. 27, 2013 Rise Set
Actual Time 7:00 AM CET 3:56 PM CET
Civil Twilight 6:26 AM CET 4:30 PM CET
Nautical Twilight 5:48 AM CET 5:08 PM CET
Astronomical Twilight 5:12 AM CET 5:44 PM CET
Moon 12:22 AM CET (11/27) 12:44 PM CET (11/27)
Length of Visible Light 10h 04m
Length of Day
8h 55m
Waning Crescent, 34% of the Moon is Illuminated
Nov 27
Waning Crescent
Dec 3
New
Dec 9
First Quarter
Dec 17
Full
Dec 25
Last Quarter

Hourly Weather History & Observations

Time (CET) Temp. Windchill Dew Point Humidity Pressure Visibility Wind Dir Wind Speed Gust Speed Precip Events Conditions
12:00 AM - - - N/A% - 1.7 mi North - - N/A   Unknown
12:15 AM 33.8 °F 22.3 °F 21.2 °F 60% 30.18 in - NE 20.1 mph 31.3 mph N/A   Clear
12:45 AM 33.8 °F 22.3 °F 21.2 °F 60% 30.18 in - NNE 20.1 mph 31.3 mph N/A   Clear
1:15 AM 33.8 °F 23.0 °F 21.2 °F 60% 30.18 in - NE 17.9 mph 31.3 mph N/A   Clear
1:45 AM 33.8 °F 22.3 °F 21.2 °F 60% 30.21 in - NNE 20.1 mph - N/A   Clear
2:15 AM 33.8 °F 23.7 °F 23.0 °F 65% 30.21 in - NE 15.7 mph 26.8 mph N/A   Clear
2:45 AM 33.8 °F 23.0 °F 23.0 °F 65% 30.21 in - NNE 17.9 mph - N/A   Clear
3:15 AM 32.0 °F 21.4 °F 23.0 °F 69% 30.21 in - NE 15.7 mph - N/A   Clear
3:45 AM 32.0 °F 22.2 °F 23.0 °F 69% 30.21 in - NNE 13.4 mph 24.6 mph N/A   Clear
4:15 AM 32.0 °F 22.2 °F 23.0 °F 69% 30.21 in - NNE 13.4 mph - N/A   Clear
4:45 AM 32.0 °F 23.2 °F 23.0 °F 69% 30.24 in - NNE 11.2 mph - N/A   Clear
5:15 AM 32.0 °F 21.4 °F 23.0 °F 69% 30.21 in - NNE 15.7 mph - N/A   Clear
5:45 AM - - - N/A% - - NNE 11.2 mph - N/A   Clear
6:15 AM 32.0 °F 22.2 °F 21.2 °F 64% 30.24 in - NNE 13.4 mph 24.6 mph N/A   Clear
6:45 AM 32.0 °F 22.2 °F 21.2 °F 64% 30.24 in - NNE 13.4 mph - N/A   Clear
7:15 AM 32.0 °F 23.2 °F 23.0 °F 69% 30.27 in - NNE 11.2 mph - N/A   Clear
7:45 AM 32.0 °F 23.2 °F 23.0 °F 69% 30.27 in - NNE 11.2 mph - N/A   Clear
8:15 AM 32.0 °F 23.2 °F 21.2 °F 64% 30.27 in - NNE 11.2 mph - N/A   Clear
8:45 AM - - - N/A% - - NNE 11.2 mph - N/A   Clear
9:15 AM 33.8 °F 24.5 °F 21.2 °F 60% 30.30 in - NNE 13.4 mph - N/A   Clear
9:45 AM 35.6 °F 26.8 °F 21.2 °F 56% 30.30 in - NNE 13.4 mph - N/A   Clear
10:15 AM 35.6 °F 26.8 °F 21.2 °F 56% 30.30 in - NE 13.4 mph - N/A   Clear
10:45 AM 35.6 °F 27.7 °F 21.2 °F 56% 30.30 in - NNE 11.2 mph 22.4 mph N/A   Clear
11:15 AM 37.4 °F 29.9 °F 23.0 °F 56% 30.30 in - NE 11.2 mph - N/A   Clear
11:45 AM - - - N/A% - - NNE 11.2 mph - N/A   Clear
12:15 PM 37.4 °F 29.1 °F 23.0 °F 56% 30.30 in - North 13.4 mph - N/A   Clear
12:45 PM 37.4 °F 29.9 °F 23.0 °F 56% 30.30 in 6.2 mi North 11.2 mph - N/A   Partly Cloudy
1:15 PM 39.2 °F 32.2 °F 24.8 °F 56% 30.33 in 6.2 mi North 11.2 mph - N/A   Partly Cloudy
1:45 PM 37.4 °F 29.9 °F 23.0 °F 56% 30.33 in 6.2 mi NNE 11.2 mph - N/A   Partly Cloudy
2:15 PM 39.2 °F 33.1 °F 23.0 °F 52% 30.33 in 6.2 mi NNE 8.9 mph - N/A   Scattered Clouds
2:45 PM 37.4 °F 32.2 °F 24.8 °F 60% 30.33 in 6.2 mi NE 6.7 mph - N/A   Scattered Clouds
3:15 PM 35.6 °F 31.8 °F 23.0 °F 60% 30.36 in - NE 4.5 mph - N/A   Clear
3:45 PM 35.6 °F 31.8 °F 23.0 °F 60% 30.36 in - North 4.5 mph - N/A   Clear
4:15 PM 30.2 °F 25.5 °F 23.0 °F 75% 30.36 in - North 4.5 mph - N/A   Clear
4:45 PM 30.2 °F - 23.0 °F 75% 30.36 in - North 2.2 mph - N/A   Clear
5:15 PM 30.2 °F 25.5 °F 24.8 °F 80% 30.39 in - NNW 4.5 mph - N/A   Clear
5:45 PM - - - N/A% - 6.2 mi NNW 6.7 mph - N/A   Clear
6:15 PM 28.4 °F 23.4 °F 23.0 °F 80% 30.39 in - NNW 4.5 mph - N/A   Clear
6:45 PM 28.4 °F 23.4 °F 23.0 °F 80% 30.39 in - NNW 4.5 mph - N/A   Clear
7:15 PM 28.4 °F - 23.0 °F 80% 30.39 in - WNW 2.2 mph - N/A   Clear
7:45 PM 26.6 °F - 23.0 °F 86% 30.39 in - Calm Calm - N/A   Clear
8:15 PM 28.4 °F - 23.0 °F 80% 30.42 in - NNW 2.2 mph - N/A   Clear
8:45 PM - - - N/A% - 1.7 mi Variable 4.5 mph - N/A   Clear
9:15 PM 26.6 °F 21.3 °F 23.0 °F 86% 30.42 in - NW 4.5 mph - N/A   Clear
9:45 PM 26.6 °F - 23.0 °F 86% 30.42 in - Calm Calm - N/A   Clear
10:15 PM 26.6 °F - 23.0 °F 86% 30.42 in - Calm Calm - N/A   Clear
10:45 PM 28.4 °F - 23.0 °F 80% 30.45 in - Calm Calm - N/A   Clear
11:15 PM 26.6 °F 21.3 °F 23.0 °F 86% 30.42 in - NW 4.5 mph - N/A   Clear
11:45 PM 26.6 °F 21.3 °F 23.0 °F 86% 30.42 in - NW 4.5 mph - N/A   Clear